When you browse on this site, cookies collect data to enhance your experience and personalize the content and advertising you see.
Visit our Privacy Policy to learn more. By continuing to use the site, you agree to this use of cookies and data.
  • In Deutschland
  • Länderverzeichnis
  • Für 7 Tage
  • Wassertemperatur
  • Wetterkarte
  • Widgets
  • user-avatar
    Anmelden

    Stündliche Wetter Bad Waldsee

    Heute, 28 Januar, Dienstag

    Zeit Temperatur Niederschläge Wind Luftdruck Luftfeuchtigkeit
    00:00 +1°C° 0.2 mm 4 m/S 700 mmHg 90%
    01:00 +1°C° 0.2 mm 4 m/S 700 mmHg 93%
    02:00 +1°C° 0.7 mm 4 m/S 699 mmHg 93%
    03:00 +1°C° 0.7 mm 4 m/S 698 mmHg 93%
    04:00 0°C° 0.7 mm 5 m/S 698 mmHg 93%
    05:00 0°C° 2.1 mm 5 m/S 698 mmHg 94%
    06:00 0°C° 2.1 mm 5 m/S 697 mmHg 95%
    07:00 0°C° 2.1 mm 4 m/S 697 mmHg 96%
    08:00 +1°C° 1.1 mm 5 m/S 697 mmHg 95%
    09:00 +1°C° 1.1 mm 5 m/S 696 mmHg 93%
    10:00 +1°C° 1.1 mm 5 m/S 696 mmHg 92%
    11:00 +1°C° 2.2 mm 6 m/S 696 mmHg 91%
    12:00 0°C° 2.2 mm 7 m/S 696 mmHg 90%
    13:00 -1°C° 2.2 mm 8 m/S 696 mmHg 89%
    14:00 -1°C° 0.3 mm 8 m/S 697 mmHg 85%
    15:00 -1°C° 0.3 mm 7 m/S 697 mmHg 81%
    16:00 -1°C° 0.3 mm 7 m/S 698 mmHg 77%
    17:00 -2°C° 0.2 mm 7 m/S 699 mmHg 81%
    18:00 -2°C° 0.2 mm 6 m/S 699 mmHg 84%
    19:00 -3°C° 0.2 mm 6 m/S 700 mmHg 88%
    20:00 -3°C° 0.1 mm 6 m/S 700 mmHg 90%
    21:00 -3°C° 0.1 mm 7 m/S 700 mmHg 92%
    22:00 -3°C° 0.1 mm 7 m/S 700 mmHg 94%
    23:00 -3°C° 0.4 mm 7 m/S 700 mmHg 93%

    Morgen, 29 Januar, Mittwoch

    Zeit Temperatur Niederschläge Wind Luftdruck Luftfeuchtigkeit
    00:00 -3°C° 0.4 mm 6 m/S 700 mmHg 93%
    01:00 -3°C° 0.4 mm 6 m/S 701 mmHg 92%
    02:00 -3°C° 1.2 mm 6 m/S 701 mmHg 93%
    03:00 -2°C° 1.2 mm 5 m/S 701 mmHg 94%
    04:00 -2°C° 1.2 mm 5 m/S 701 mmHg 95%
    05:00 -2°C° 0.2 mm 5 m/S 701 mmHg 94%
    06:00 -2°C° 0.2 mm 5 m/S 702 mmHg 94%
    07:00 -2°C° 0.2 mm 5 m/S 702 mmHg 94%
    08:00 -2°C° 0.2 mm 5 m/S 702 mmHg 91%
    09:00 -2°C° 0.2 mm 5 m/S 703 mmHg 89%
    10:00 -3°C° 0.2 mm 6 m/S 703 mmHg 86%
    11:00 -2°C° 0.1 mm 6 m/S 704 mmHg 85%
    12:00 -1°C° 0.1 mm 6 m/S 704 mmHg 83%
    13:00 -1°C° 0.1 mm 6 m/S 704 mmHg 81%
    14:00 -1°C° 0.2 mm 6 m/S 704 mmHg 82%
    15:00 -1°C° 0.2 mm 6 m/S 704 mmHg 83%
    16:00 -1°C° 0.2 mm 6 m/S 705 mmHg 84%
    17:00 -2°C° 0.5 mm 6 m/S 705 mmHg 88%
    18:00 -2°C° 0.5 mm 6 m/S 706 mmHg 92%
    19:00 -1°C° 0.5 mm 5 m/S 707 mmHg 96%
    20:00 -2°C° 0.2 mm 5 m/S 707 mmHg 95%
    21:00 -2°C° 0.2 mm 4 m/S 708 mmHg 94%
    22:00 -1°C° 0.2 mm 3 m/S 708 mmHg 94%
    23:00 -1°C° 0.1 mm 3 m/S 709 mmHg 95%

    übermorgen, 30 Januar, Donnerstag

    Zeit Temperatur Niederschläge Wind Luftdruck Luftfeuchtigkeit
    00:00 -1°C° 0.1 mm 3 m/S 709 mmHg 96%
    01:00 -1°C° 0.1 mm 3 m/S 709 mmHg 97%
    02:00 -1°C° 0 mm 3 m/S 709 mmHg 96%
    03:00 -1°C° 0 mm 2 m/S 709 mmHg 96%
    04:00 -1°C° 0 mm 2 m/S 709 mmHg 96%
    05:00 -2°C° 0 mm 2 m/S 709 mmHg 94%
    06:00 -2°C° 0 mm 2 m/S 708 mmHg 93%
    07:00 -3°C° 0 mm 2 m/S 708 mmHg 91%
    08:00 -2°C° 0 mm 2 m/S 708 mmHg 89%
    09:00 +1°C° 0 mm 1 m/S 707 mmHg 86%
    10:00 +2°C° 0 mm 1 m/S 707 mmHg 83%
    11:00 +2°C° 0 mm 1 m/S 707 mmHg 83%
    12:00 +3°C° 0 mm 1 m/S 706 mmHg 83%
    13:00 +4°C° 0 mm 1 m/S 706 mmHg 82%
    14:00 +4°C° 0 mm 1 m/S 705 mmHg 83%
    15:00 +4°C° 0 mm 1 m/S 705 mmHg 84%
    16:00 +3°C° 0 mm 2 m/S 704 mmHg 85%
    17:00 +3°C° 0 mm 2 m/S 705 mmHg 85%
    18:00 +3°C° 0 mm 2 m/S 705 mmHg 84%
    19:00 +1°C° 0 mm 3 m/S 705 mmHg 84%
    20:00 +2°C° 0.1 mm 3 m/S 705 mmHg 84%
    21:00 +1°C° 0.1 mm 4 m/S 705 mmHg 85%
    22:00 +1°C° 0.1 mm 4 m/S 705 mmHg 85%
    23:00 +1°C° 0.1 mm 4 m/S 705 mmHg 88%

    31 Januar, Freitag

    Zeit Temperatur Niederschläge Wind Luftdruck Luftfeuchtigkeit
    00:00 +2°C° 0.1 mm 5 m/S 705 mmHg 90%
    01:00 +2°C° 0.1 mm 5 m/S 705 mmHg 92%
    02:00 +2°C° 0.1 mm 5 m/S 705 mmHg 93%
    03:00 +2°C° 0.1 mm 5 m/S 705 mmHg 94%
    04:00 +3°C° 0.1 mm 5 m/S 705 mmHg 95%
    05:00 +3°C° 0.1 mm 5 m/S 705 mmHg 95%
    06:00 +4°C° 0.1 mm 4 m/S 705 mmHg 95%
    07:00 +4°C° 0.1 mm 4 m/S 705 mmHg 96%
    08:00 +5°C° 0.1 mm 4 m/S 705 mmHg 95%
    09:00 +5°C° 0.1 mm 4 m/S 705 mmHg 95%
    10:00 +6°C° 0.1 mm 4 m/S 706 mmHg 94%
    11:00 +6°C° 0 mm 4 m/S 706 mmHg 93%
    12:00 +7°C° 0 mm 5 m/S 706 mmHg 92%
    13:00 +7°C° 0 mm 5 m/S 705 mmHg 92%
    14:00 +7°C° 0 mm 5 m/S 705 mmHg 92%
    15:00 +7°C° 0 mm 4 m/S 705 mmHg 93%
    16:00 +7°C° 0 mm 4 m/S 705 mmHg 94%
    17:00 +7°C° 0 mm 4 m/S 706 mmHg 95%
    18:00 +7°C° 0 mm 4 m/S 706 mmHg 95%
    19:00 +6°C° 0 mm 4 m/S 706 mmHg 95%
    20:00 +6°C° 0 mm 4 m/S 706 mmHg 95%
    21:00 +6°C° 0 mm 4 m/S 706 mmHg 95%
    22:00 +6°C° 0 mm 4 m/S 706 mmHg 95%
    23:00 +6°C° 0.1 mm 4 m/S 706 mmHg 95%

    1 Februar, Samstag

    Zeit Temperatur Niederschläge Wind Luftdruck Luftfeuchtigkeit
    00:00 +6°C° 0.1 mm 4 m/S 706 mmHg 95%
    01:00 +6°C° 0.1 mm 4 m/S 706 mmHg 94%
    02:00 +6°C° 0.1 mm 4 m/S 705 mmHg 94%
    03:00 +6°C° 0.1 mm 4 m/S 705 mmHg 94%
    04:00 +6°C° 0.1 mm 5 m/S 705 mmHg 94%
    05:00 +6°C° 0.3 mm 5 m/S 705 mmHg 94%
    06:00 +6°C° 0.3 mm 5 m/S 705 mmHg 93%
    07:00 +6°C° 0.3 mm 5 m/S 705 mmHg 93%
    08:00 +6°C° 0.1 mm 5 m/S 705 mmHg 92%
    09:00 +7°C° 0.1 mm 5 m/S 705 mmHg 92%
    10:00 +7°C° 0.1 mm 5 m/S 705 mmHg 91%
    11:00 +7°C° 0.2 mm 6 m/S 705 mmHg 90%
    12:00 +8°C° 0.2 mm 6 m/S 705 mmHg 88%
    13:00 +8°C° 0.2 mm 6 m/S 705 mmHg 87%
    14:00 +8°C° 0.2 mm 6 m/S 706 mmHg 87%
    15:00 +8°C° 0.2 mm 6 m/S 706 mmHg 87%
    16:00 +8°C° 0.2 mm 6 m/S 707 mmHg 88%
    17:00 +7°C° 0 mm 6 m/S 707 mmHg 89%
    18:00 +7°C° 0 mm 6 m/S 707 mmHg 90%
    19:00 +6°C° 0 mm 5 m/S 708 mmHg 91%
    20:00 +6°C° 0 mm 5 m/S 708 mmHg 91%
    21:00 +6°C° 0 mm 4 m/S 709 mmHg 91%
    22:00 +5°C° 0 mm 4 m/S 709 mmHg 92%
    23:00 +5°C° 0 mm 4 m/S 709 mmHg 92%

    2 Februar, Sonntag

    Zeit Temperatur Niederschläge Wind Luftdruck Luftfeuchtigkeit
    00:00 +4°C° 0 mm 4 m/S 709 mmHg 92%
    01:00 +4°C° 0 mm 3 m/S 709 mmHg 92%
    02:00 +4°C° 0 mm 4 m/S 709 mmHg 91%
    03:00 +4°C° 0 mm 4 m/S 708 mmHg 90%
    04:00 +4°C° 0 mm 4 m/S 708 mmHg 90%
    05:00 +3°C° 0 mm 5 m/S 707 mmHg 88%
    06:00 +3°C° 0 mm 5 m/S 707 mmHg 86%
    07:00 +4°C° 0 mm 6 m/S 707 mmHg 84%
    08:00 +4°C° 0 mm 6 m/S 707 mmHg 81%
    09:00 +5°C° 0 mm 6 m/S 707 mmHg 78%
    10:00 +5°C° 0 mm 6 m/S 706 mmHg 75%
    11:00 +6°C° 0 mm 7 m/S 706 mmHg 73%
    12:00 +8°C° 0 mm 7 m/S 706 mmHg 71%
    13:00 +9°C° 0 mm 7 m/S 706 mmHg 69%
    14:00 +8°C° 0.4 mm 7 m/S 706 mmHg 75%
    15:00 +8°C° 0.4 mm 7 m/S 706 mmHg 80%
    16:00 +6°C° 0.4 mm 7 m/S 705 mmHg 86%
    17:00 +6°C° 0.9 mm 7 m/S 706 mmHg 88%
    18:00 +6°C° 0.9 mm 7 m/S 706 mmHg 90%
    19:00 +6°C° 0.9 mm 7 m/S 706 mmHg 91%
    20:00 +8°C° 0.9 mm 7 m/S 706 mmHg 91%
    21:00 +7°C° 0.9 mm 8 m/S 706 mmHg 90%
    22:00 +9°C° 0.9 mm 8 m/S 707 mmHg 90%
    23:00 +8°C° 0.4 mm 9 m/S 707 mmHg 88%
    Mehr zeigen